FW7622 Weather Reports


Display with metric or nautical units.
time (UTC)temp
F
wind
direction
speed
MPH
gust
MPH
rain 1hr
in
rain 24hr
in
rain mn
in
humidity
%
barometer
mb
20260510155105 53 198 2.0 2.0 0.00 0.00 0.00 55 1018.0
20260510154601 51 290 4.0 6.0 0.00 0.00 0.00 59 1018.0
20260510154056 52 11 2.0 3.0 0.00 0.00 0.00 60 1018.5
20260510153551 54 287 3.0 3.0 0.00 0.00 0.00 60 1018.5
20260510153048 53 202 2.0 2.0 0.00 0.00 0.00 63 1018.5
20260510152545 51 168 1.0 2.0 0.00 0.00 0.00 63 1018.5
20260510152042 51 229 2.0 5.0 0.00 0.00 0.00 64 1018.0
20260510151538 51 185 1.0 1.0 0.00 0.00 0.00 65 1018.5
20260510151036 49 138 1.0 1.0 0.00 0.00 0.00 66 1018.0
20260510150530 49 198 1.0 2.0 0.00 0.00 0.00 66 1018.5
20260510150027 49 147 3.0 5.0 0.00 0.00 0.00 66 1018.0
20260510145524 50 212 2.0 2.0 0.00 0.00 0.00 64 1018.0
20260510145020 50 221 2.0 3.0 0.00 0.00 0.00 65 1018.0
20260510144517 48 219 2.0 3.0 0.00 0.00 0.00 67 1018.0
20260510144013 48 191 2.0 2.0 0.00 0.00 0.00 67 1018.0
20260510143508 48 175 1.0 1.0 0.00 0.00 0.00 67 1018.5
20260510143005 47 181 2.0 2.0 0.00 0.00 0.00 69 1018.0
20260510142502 47 244 2.0 3.0 0.00 0.00 0.00 69 1018.0
20260510141958 47 158 3.0 3.0 0.00 0.00 0.00 68 1018.0
20260510141455 47 162 0.0 0.0 0.00 0.00 0.00 68 1018.0
20260510140952 47 106 2.0 2.0 0.00 0.00 0.00 68 1018.0
20260510140449 47 284 1.0 3.0 0.00 0.00 0.00 70 1018.0
20260510135948 47 328 1.0 2.0 0.00 0.00 0.00 71 1018.0
20260510135443 46 189 1.0 1.0 0.00 0.00 0.00 71 1017.7
20260510134941 46 197 1.0 1.0 0.00 0.00 0.00 72 1018.0
20260510134437 45 154 0.0 1.0 0.00 0.00 0.00 72 1018.0
20260510133934 46 240 1.0 1.0 0.00 0.00 0.00 73 1018.0
20260510133430 45 155 1.0 1.0 0.00 0.00 0.00 72 1018.0
20260510132926 44 182 1.0 2.0 0.00 0.00 0.00 75 1018.0
20260510132424 43 179 1.0 1.0 0.00 0.00 0.00 75 1018.0
20260510131920 42 173 0.0 0.0 0.00 0.00 0.00 79 1018.0
20260510131418 41 173 0.0 0.0 0.00 0.00 0.00 81 1018.0
20260510130914 40 169 0.0 0.0 0.00 0.00 0.00 83 1018.0
20260510130412 39 173 0.0 0.0 0.00 0.00 0.00 86 1018.0
20260510125909 38 170 0.0 0.0 0.00 0.00 0.00 87 1018.0
20260510125404 37 170 0.0 0.0 0.00 0.00 0.00 88 1018.0
20260510124902 37 173 0.0 0.0 0.00 0.00 0.00 89 1018.0
20260510124358 36 167 0.0 0.0 0.00 0.00 0.00 89 1017.7
20260510123854 35 165 0.0 0.0 0.00 0.00 0.00 89 1018.0
20260510123350 35 167 0.0 0.0 0.00 0.00 0.00 90 1017.7
20260510122846 34 167 0.0 0.0 0.00 0.00 0.00 91 1017.7
20260510122342 34 162 0.0 0.0 0.00 0.00 0.00 91 1017.7
20260510121839 33 156 0.0 1.0 0.00 0.00 0.00 91 1017.7
20260510121336 33 155 0.0 0.0 0.00 0.00 0.00 91 1017.4
20260510120833 33 163 0.0 0.0 0.00 0.00 0.00 91 1017.4
20260510120331 32 161 0.0 0.0 0.00 0.00 0.00 91 1017.4
20260510115826 32 155 0.0 1.0 0.00 0.00 0.00 92 1017.4
20260510115323 32 154 0.0 1.0 0.00 0.00 0.00 92 1017.0
20260510114819 31 154 0.0 1.0 0.00 0.00 0.00 92 1017.0
20260510114317 31 167 0.0 0.0 0.00 0.00 0.00 92 1017.0
20260510113811 31 162 0.0 0.0 0.00 0.00 0.00 92 1017.4
20260510113308 30 160 0.0 0.0 0.00 0.00 0.00 93 1017.4
20260510112805 30 158 0.0 0.0 0.00 0.00 0.00 93 1017.0
20260510112305 30 159 0.0 0.0 0.00 0.00 0.00 93 1017.0
20260510111758 29 158 0.0 0.0 0.00 0.00 0.00 93 1017.0
20260510111255 29 160 0.0 0.0 0.00 0.00 0.00 93 1017.0
20260510110754 29 160 0.0 0.0 0.00 0.00 0.00 93 1016.7
20260510110252 28 160 0.0 0.0 0.00 0.00 0.00 93 1016.7
20260510105752 28 161 0.0 0.0 0.00 0.00 0.00 93 1016.7
20260510105247 28 156 0.0 0.0 0.00 0.00 0.00 92 1016.7
20260510104744 28 156 0.0 0.0 0.00 0.00 0.00 92 1016.7
20260510104241 28 143 1.0 1.0 0.00 0.00 0.00 92 1016.7
20260510103737 29 155 0.0 0.0 0.00 0.00 0.00 92 1016.7
20260510103235 29 155 0.0 0.0 0.00 0.00 0.00 93 1016.3
20260510102734 29 160 0.0 1.0 0.00 0.00 0.00 93 1016.3
20260510102230 29 161 0.0 0.0 0.00 0.00 0.00 93 1016.7
20260510101728 28 161 0.0 0.0 0.00 0.00 0.00 93 1016.3
20260510101226 28 161 0.0 0.0 0.00 0.00 0.00 93 1016.3
20260510100722 28 161 0.0 0.0 0.00 0.00 0.00 93 1016.3
20260510100220 28 160 0.0 0.0 0.00 0.00 0.00 94 1016.0
20260510095715 28 163 0.0 0.0 0.00 0.00 0.00 94 1016.0
20260510095211 28 163 0.0 0.0 0.00 0.00 0.00 94 1015.7
20260510094709 28 163 0.0 0.0 0.00 0.00 0.00 94 1016.0
20260510094205 27 162 0.0 0.0 0.00 0.00 0.00 94 1016.0
20260510093701 27 161 0.0 0.0 0.00 0.00 0.00 93 1015.7
20260510093159 27 158 0.0 0.0 0.00 0.00 0.00 93 1015.7
20260510092655 27 142 1.0 1.0 0.00 0.00 0.00 93 1015.3
20260510092151 27 148 0.0 1.0 0.00 0.00 0.00 93 1015.7
20260510091646 27 147 0.0 1.0 0.00 0.00 0.00 93 1015.3
20260510091143 27 152 1.0 1.0 0.00 0.00 0.00 93 1015.3
20260510090640 27 155 0.0 1.0 0.00 0.00 0.00 93 1015.3
20260510090136 27 156 0.0 0.0 0.00 0.00 0.00 92 1015.0
20260510085631 27 156 0.0 0.0 0.00 0.00 0.00 92 1015.3
20260510085126 27 156 0.0 1.0 0.00 0.00 0.00 92 1015.0
20260510084624 27 156 0.0 0.0 0.00 0.00 0.00 91 1015.0
20260510084120 27 146 0.0 0.0 0.00 0.00 0.00 91 1015.0
20260510083617 27 146 0.0 0.0 0.00 0.00 0.00 91 1015.3
20260510083113 27 146 1.0 1.0 0.00 0.00 0.00 91 1015.0
20260510082610 27 151 0.0 0.0 0.00 0.00 0.00 91 1015.0
20260510082105 28 150 0.0 1.0 0.00 0.00 0.00 91 1015.0
20260510081600 28 155 0.0 0.0 0.00 0.00 0.00 90 1014.5
20260510081056 28 149 0.0 0.0 0.00 0.00 0.00 90 1015.0
20260510080555 28 147 0.0 1.0 0.00 0.00 0.00 90 1014.5
20260510080053 28 148 1.0 1.0 0.00 0.00 0.00 90 1015.0
20260510075550 28 150 0.0 1.0 0.00 0.00 0.00 89 1014.5
20260510075047 28 154 0.0 0.0 0.00 0.00 0.00 89 1014.5
20260510074544 28 155 0.0 0.0 0.00 0.00 0.00 89 1014.5
20260510074039 28 145 0.0 0.0 0.00 0.00 0.00 89 1014.5
20260510073536 28 142 1.0 1.0 0.00 0.00 0.00 89 1014.5
20260510073033 28 150 1.0 1.0 0.00 0.00 0.00 88 1014.5
20260510072530 29 152 0.0 0.0 0.00 0.00 0.00 88 1014.5
20260510072025 29 144 1.0 1.0 0.00 0.00 0.00 88 1014.5
20260510071521 29 153 0.0 1.0 0.00 0.00 0.00 88 1014.5
20260510071020 29 154 0.0 0.0 0.00 0.00 0.00 87 1014.5
20260510070516 29 154 0.0 0.0 0.00 0.00 0.00 87 1014.5
20260510070013 29 154 0.0 0.0 0.00 0.00 0.00 87 1014.2
20260510065510 30 147 1.0 1.0 0.00 0.00 0.00 86 1014.5
20260510065006 30 143 0.0 1.0 0.00 0.00 0.00 86 1014.2
20260510064503 30 139 1.0 1.0 0.00 0.00 0.00 85 1014.2
20260510063959 30 147 1.0 1.0 0.00 0.00 0.00 85 1014.5
20260510063456 31 143 0.0 1.0 0.00 0.00 0.00 84 1014.2
20260510062954 31 144 0.0 1.0 0.00 0.00 0.00 84 1014.2
20260510062449 31 157 0.0 0.0 0.00 0.00 0.00 84 1014.5
20260510061944 32 157 0.0 0.0 0.00 0.00 0.00 84 1014.2
20260510061441 32 157 0.0 1.0 0.00 0.00 0.00 83 1013.9
20260510060937 32 161 0.0 0.0 0.00 0.00 0.00 82 1014.5
20260510060434 32 161 0.0 0.0 0.00 0.00 0.00 81 1014.2
20260510055931 33 161 0.0 0.0 0.00 0.00 0.00 80 1014.2
20260510055426 33 160 0.0 0.0 0.00 0.00 0.00 79 1014.2
20260510054924 33 145 1.0 1.0 0.00 0.00 0.00 79 1013.9
20260510054420 34 156 0.0 1.0 0.00 0.00 0.00 78 1014.2
20260510053915 35 160 0.0 0.0 0.00 0.00 0.00 77 1013.9
20260510053411 35 151 0.0 1.0 0.00 0.00 0.00 76 1013.9
20260510052907 35 151 0.0 1.0 0.00 0.00 0.00 75 1013.9
20260510052403 36 156 0.0 0.0 0.00 0.00 0.00 74 1013.9
20260510051900 37 158 0.0 0.0 0.00 0.00 0.00 73 1013.9
20260510051356 38 159 0.0 0.0 0.00 0.00 0.00 72 1013.9
20260510050853 39 171 0.0 0.0 0.00 0.00 0.00 71 1013.5
20260510050350 39 171 0.0 0.0 0.00 0.00 0.00 71 1013.5
20260510045846 40 167 0.0 0.0 0.00 0.12 0.12 69 1013.5
20260510045343 40 170 0.0 0.0 0.00 0.12 0.12 68 1013.5
20260510044840 39 165 0.0 0.0 0.00 0.12 0.12 69 1013.5
20260510044337 39 171 0.0 0.0 0.00 0.12 0.12 68 1013.5
20260510043834 39 168 0.0 0.0 0.00 0.12 0.12 72 1013.5
20260510043330 39 168 0.0 0.0 0.00 0.12 0.12 72 1013.5
20260510042828 40 168 0.0 0.0 0.00 0.12 0.12 70 1013.5
20260510042323 40 168 0.0 0.0 0.00 0.12 0.12 70 1013.5
20260510041820 41 169 0.0 0.0 0.00 0.12 0.12 74 1013.5
20260510041317 42 168 0.0 0.0 0.00 0.12 0.12 68 1013.2
20260510040814 43 168 0.0 0.0 0.00 0.12 0.12 63 1013.2
20260510040311 44 168 0.0 0.0 0.00 0.12 0.12 60 1013.5
20260510035806 44 174 0.0 0.0 0.00 0.12 0.12 58 1013.2
20260510035306 45 170 0.0 0.0 0.00 0.12 0.12 57 1012.9
20260510034758 46 166 0.0 0.0 0.00 0.12 0.12 57 1012.9
20260510034256 45 190 1.0 1.0 0.00 0.12 0.12 56 1013.2
20260510033752 45 154 0.0 0.0 0.00 0.12 0.12 57 1013.2
20260510033250 44 162 0.0 0.0 0.00 0.12 0.12 59 1012.9
20260510032746 42 173 1.0 1.0 0.00 0.12 0.12 64 1012.9
20260510032242 41 171 0.0 0.0 0.00 0.12 0.12 68 1012.9
20260510031738 42 173 0.0 0.0 0.00 0.12 0.12 71 1012.9
20260510031233 42 161 0.0 0.0 0.00 0.12 0.12 65 1012.9
20260510030733 42 170 0.0 0.0 0.00 0.12 0.12 67 1012.2
20260510030230 43 169 0.0 0.0 0.00 0.12 0.12 60 1012.5
20260510025728 44 164 0.0 0.0 0.00 0.12 0.12 60 1012.2
20260510025226 44 161 0.0 0.0 0.00 0.12 0.12 60 1012.2
20260510024722 44 162 0.0 0.0 0.00 0.12 0.12 56 1012.2
20260510024219 45 165 0.0 0.0 0.00 0.12 0.12 55 1011.8
20260510023714 46 165 0.0 0.0 0.00 0.12 0.12 54 1012.2
20260510023211 46 174 0.0 0.0 0.00 0.12 0.12 53 1011.8
20260510022708 46 174 0.0 0.0 0.00 0.12 0.12 52 1011.5
20260510022202 47 174 0.0 0.0 0.00 0.12 0.12 51 1011.8
20260510021658 47 192 0.0 0.0 0.00 0.12 0.12 50 1011.5
20260510021156 47 176 0.0 0.0 0.00 0.12 0.12 49 1011.5
20260510020656 48 174 0.0 0.0 0.00 0.12 0.12 49 1011.1
20260510020151 49 179 0.0 0.0 0.00 0.12 0.12 48 1011.1
20260510015647 50 172 0.0 0.0 0.00 0.12 0.12 47 1011.1
20260510015144 50 174 0.0 0.0 0.00 0.12 0.12 46 1011.1
20260510014644 50 161 0.0 1.0 0.00 0.12 0.12 45 1010.7
20260510014142 51 165 0.0 0.0 0.00 0.12 0.12 46 1011.1
20260510013637 51 161 0.0 0.0 0.00 0.12 0.12 45 1010.7
20260510013132 52 147 0.0 0.0 0.00 0.12 0.12 44 1010.7
20260510012633 52 182 1.0 1.0 0.00 0.12 0.12 43 1010.4
20260510012129 53 110 1.0 2.0 0.00 0.12 0.12 44 1010.4
20260510011629 53 172 0.0 0.0 0.00 0.12 0.12 42 1010.4
20260510011125 53 7 2.0 2.0 0.00 0.12 0.12 43 1010.4
20260510010621 54 137 1.0 2.0 0.00 0.12 0.12 44 1010.4
20260510010118 54 157 3.0 5.0 0.00 0.12 0.12 42 1010.4
20260510005614 54 307 2.0 2.0 0.00 0.12 0.12 42 1010.0
20260510005111 54 220 1.0 2.0 0.00 0.12 0.12 42 1010.0
20260510004609 54 74 2.0 2.0 0.00 0.12 0.12 41 1010.0
20260510004107 55 104 3.0 3.0 0.00 0.12 0.12 42 1010.0
20260510003604 54 253 3.0 3.0 0.00 0.12 0.12 43 1010.0
20260510003059 54 166 2.0 3.0 0.00 0.12 0.12 44 1009.7
20260510002554 55 151 1.0 1.0 0.00 0.12 0.12 43 1009.7
20260510002051 55 180 1.0 1.0 0.00 0.12 0.12 44 1009.7
20260510001549 55 193 2.0 3.0 0.00 0.12 0.12 42 1009.4
20260510001048 55 311 3.0 3.0 0.00 0.12 0.12 41 1009.4
20260510000542 56 318 3.0 3.0 0.00 0.12 0.12 40 1009.7
20260510000039 56 279 2.0 2.0 0.00 0.12 0.12 40 1009.4
20260509235536 56 282 2.0 2.0 0.00 0.12 0.12 43 1009.4
20260509235033 56 181 2.0 3.0 0.00 0.12 0.12 43 1009.4
20260509234529 56 265 3.0 5.0 0.00 0.12 0.12 41 1009.4
20260509234027 57 296 2.0 3.0 0.00 0.12 0.12 41 1008.7
20260509233524 58 282 3.0 5.0 0.00 0.12 0.12 40 1009.4
20260509233021 58 263 3.0 5.0 0.00 0.12 0.12 39 1008.7
20260509232518 57 99 2.0 3.0 0.00 0.12 0.12 40 1009.0
20260509232014 58 239 4.0 6.0 0.00 0.12 0.12 38 1009.0
20260509231511 59 154 1.0 2.0 0.00 0.12 0.12 38 1008.7
20260509231009 57 8 3.0 5.0 0.00 0.12 0.12 36 1008.7
20260509230505 57 356 4.0 6.0 0.00 0.12 0.12 38 1008.7
20260509230002 57 317 2.0 2.0 0.00 0.12 0.12 40 1008.7
20260509225458 57 52 4.0 6.0 0.00 0.12 0.12 38 1008.7
20260509224953 58 53 4.0 6.0 0.00 0.12 0.12 38 1008.7
20260509224449 58 285 3.0 6.0 0.00 0.12 0.12 38 1008.7
20260509223946 59 56 3.0 5.0 0.00 0.12 0.12 37 1008.4
20260509223443 58 55 3.0 5.0 0.00 0.12 0.12 38 1008.7
20260509222940 57 349 6.0 9.0 0.00 0.12 0.12 39 1008.7
20260509222435 58 43 2.0 2.0 0.00 0.12 0.12 40 1008.4
20260509221931 60 37 4.0 6.0 0.00 0.12 0.12 37 1008.4
20260509221429 60 103 1.0 1.0 0.00 0.12 0.12 38 1008.4
20260509220924 60 26 4.0 10.0 0.00 0.12 0.12 39 1008.0
20260509220420 57 143 3.0 3.0 0.00 0.12 0.12 38 1008.0
20260509215917 60 210 5.0 8.0 0.00 0.12 0.12 36 1008.0
20260509215412 59 45 5.0 8.0 0.00 0.12 0.12 37 1008.4
20260509214910 59 99 6.0 7.0 0.00 0.12 0.12 37 1008.0
20260509214407 60 28 2.0 2.0 0.00 0.12 0.12 37 1008.0
20260509213904 60 72 3.0 5.0 0.00 0.12 0.12 39 1008.0
20260509213359 60 358 4.0 6.0 0.00 0.12 0.12 37 1007.7
20260509212857 60 244 9.0 14.0 0.00 0.12 0.12 38 1007.7
20260509212354 60 125 3.0 3.0 0.00 0.12 0.12 38 1007.7
20260509211850 59 246 1.0 2.0 0.00 0.12 0.12 39 1007.7
20260509211346 59 31 3.0 6.0 0.00 0.12 0.12 39 1007.2
20260509210843 60 313 4.0 6.0 0.00 0.12 0.12 38 1007.7
20260509210341 61 312 6.0 7.0 0.00 0.12 0.12 38 1007.2
20260509205840 60 130 2.0 2.0 0.00 0.12 0.12 38 1007.2
20260509205335 59 131 6.0 9.0 0.00 0.12 0.12 37 1007.2
20260509204832 60 306 9.0 13.0 0.00 0.12 0.12 38 1007.7
20260509204328 61 32 5.0 7.0 0.00 0.12 0.12 37 1007.2
20260509203824 60 303 8.0 10.0 0.00 0.12 0.12 37 1007.2
20260509203321 60 349 4.0 6.0 0.00 0.12 0.12 36 1007.2
20260509202817 60 188 5.0 7.0 0.00 0.12 0.12 37 1007.2
20260509202314 60 359 5.0 6.0 0.00 0.12 0.12 37 1006.9
20260509201813 60 322 6.0 8.0 0.00 0.12 0.12 38 1006.9
20260509201310 61 265 1.0 2.0 0.00 0.12 0.12 40 1006.9
20260509200806 60 167 4.0 7.0 0.00 0.12 0.12 37 1006.9
20260509200302 59 205 3.0 5.0 0.00 0.12 0.12 39 1006.9
20260509195758 60 144 3.0 5.0 0.00 0.12 0.12 38 1006.9
20260509195254 59 89 5.0 9.0 0.00 0.12 0.12 37 1006.9
20260509194748 60 185 1.0 2.0 0.00 0.12 0.12 40 1006.9
20260509194244 59 269 4.0 7.0 0.00 0.12 0.12 40 1006.6
20260509193741 59 305 4.0 5.0 0.00 0.12 0.12 37 1006.9
20260509193241 59 136 4.0 8.0 0.00 0.12 0.12 40 1006.9
20260509192737 59 74 5.0 7.0 0.00 0.12 0.12 39 1006.9
20260509192232 58 303 3.0 3.0 0.00 0.12 0.12 41 1006.9
20260509191728 58 13 5.0 9.0 0.00 0.12 0.12 41 1006.9
20260509191225 59 223 4.0 8.0 0.00 0.12 0.12 44 1006.6
20260509190721 59 200 3.0 5.0 0.00 0.12 0.12 42 1006.9
20260509190218 59 352 4.0 6.0 0.00 0.12 0.12 40 1006.6
20260509185716 59 153 1.0 2.0 0.00 0.12 0.12 43 1006.2
20260509185212 58 193 5.0 7.0 0.00 0.12 0.12 42 1006.6
20260509184709 59 326 2.0 3.0 0.00 0.12 0.12 42 1006.2
20260509184206 58 24 3.0 6.0 0.00 0.12 0.12 46 1006.6
20260509183702 58 201 2.0 3.0 0.00 0.12 0.12 43 1006.2
20260509183158 57 301 4.0 5.0 0.00 0.12 0.12 41 1006.2
20260509182653 57 84 4.0 6.0 0.00 0.12 0.12 42 1006.2
20260509182151 57 317 5.0 7.0 0.00 0.12 0.12 42 1006.6
20260509181649 58 268 2.0 3.0 0.00 0.12 0.12 44 1006.6
20260509181146 58 318 6.0 9.0 0.00 0.12 0.12 44 1006.2
20260509180643 57 192 3.0 3.0 0.00 0.12 0.12 45 1006.2
20260509180139 57 197 1.0 2.0 0.00 0.12 0.12 48 1006.2
20260509175635 57 228 2.0 3.0 0.00 0.12 0.12 49 1006.2
20260509175132 55 272 6.0 8.0 0.00 0.12 0.12 47 1006.2
20260509174628 57 190 3.0 6.0 0.00 0.12 0.12 49 1006.2
20260509174123 56 294 4.0 6.0 0.00 0.12 0.12 51 1006.2
20260509173619 56 95 5.0 8.0 0.00 0.12 0.12 48 1005.9
20260509173115 57 246 4.0 5.0 0.00 0.12 0.12 49 1006.2
20260509172612 56 139 4.0 10.0 0.00 0.12 0.12 51 1006.2
20260509172108 55 259 6.0 11.0 0.00 0.12 0.12 51 1006.2
20260509171604 57 344 3.0 5.0 0.00 0.12 0.12 50 1005.9
20260509171100 56 115 9.0 11.0 0.00 0.12 0.12 46 1005.9
20260509170556 56 45 5.0 9.0 0.00 0.12 0.12 46 1005.9
20260509170047 56 2 3.0 5.0 0.00 0.12 0.12 53 1005.9
20260509165546 56 200 5.0 8.0 0.00 0.12 0.12 51 1005.5
20260509165041 55 146 2.0 3.0 0.00 0.12 0.12 56 1005.2
20260509164538 55 211 3.0 5.0 0.00 0.12 0.12 56 1005.5
20260509164033 55 323 8.0 11.0 0.00 0.12 0.12 55 1005.5
20260509163531 55 133 4.0 7.0 0.00 0.12 0.12 56 1005.5
20260509163026 56 22 5.0 8.0 0.00 0.12 0.12 56 1005.2
20260509162524 55 305 6.0 8.0 0.00 0.12 0.12 61 1005.2
20260509162019 54 283 1.0 2.0 0.00 0.12 0.12 62 1005.2
20260509161516 56 204 6.0 10.0 0.00 0.12 0.12 60 1004.9
20260509161016 55 306 3.0 3.0 0.00 0.12 0.12 63 1005.2
20260509160512 53 173 3.0 6.0 0.00 0.12 0.12 65 1005.2
20260509160008 53 9 5.0 7.0 0.00 0.12 0.12 64 1005.2